CW4185 Weather Reports


time (UTC)temp
C
wind
direction
speed
KPH
gust
KPH
rain 1hr
cm
rain 24hr
cm
rain mn
cm
humidity
%
barometer
mb
20260906223646 33 246 4.8 8.0 0.00 0.00 0.00 65 1009.5
20260906223148 33 221 6.4 17.7 0.00 0.00 0.00 65 1009.5
20260906222646 33 235 9.7 12.9 0.00 0.00 0.00 64 1009.5
20260906222146 32 202 8.0 12.9 0.00 0.00 0.00 65 1009.5
20260906221646 32 214 9.7 14.5 0.00 0.00 0.00 65 1009.5
20260906221147 32 318 4.8 9.7 0.00 0.00 0.00 66 1009.5
20260906220646 32 279 6.4 11.3 0.00 0.00 0.00 66 1009.8
20260906220146 32 240 8.0 19.3 0.00 0.00 0.00 66 1009.5
20260906215647 33 217 17.7 22.5 0.00 0.00 0.00 64 1009.8
20260906215146 32 221 8.0 11.3 0.00 0.00 0.00 64 1009.5
20260906214646 33 236 4.8 11.3 0.00 0.00 0.00 63 1009.8
20260906214146 32 218 9.7 11.3 0.00 0.00 0.00 66 1009.8
20260906213647 32 232 6.4 12.9 0.00 0.00 0.00 64 1009.5
20260906213146 33 205 3.2 11.3 0.00 0.00 0.00 60 1009.8
20260906212646 33 224 11.3 16.1 0.00 0.00 0.00 63 1009.8
20260906212146 33 198 12.9 14.5 0.00 0.00 0.00 62 1009.8
20260906211646 32 217 6.4 11.3 0.00 0.00 0.00 63 1009.8
20260906211147 33 225 9.7 16.1 0.00 0.00 0.00 61 1009.8
20260906210646 33 213 9.7 11.3 0.00 0.00 0.00 63 1010.2
20260906210147 33 206 6.4 12.9 0.00 0.00 0.00 62 1009.8
20260906205646 33 234 11.3 16.1 0.00 0.00 0.00 61 1010.2
20260906205147 33 259 6.4 11.3 0.00 0.00 0.00 63 1010.2
20260906204647 33 263 9.7 11.3 0.00 0.00 0.00 63 1010.2
20260906204146 32 313 4.8 12.9 0.00 0.00 0.00 63 1010.2
20260906203646 33 208 4.8 14.5 0.00 0.00 0.00 61 1010.5
20260906203146 33 242 3.2 9.7 0.00 0.00 0.00 60 1010.5
20260906202646 32 325 8.0 11.3 0.00 0.00 0.00 62 1010.8
20260906202146 33 268 9.7 12.9 0.00 0.00 0.00 61 1010.8
20260906201646 32 288 3.2 11.3 0.00 0.00 0.00 59 1011.2
20260906201146 33 227 8.0 12.9 0.00 0.00 0.00 62 1010.8
20260906200646 33 285 4.8 14.5 0.00 0.00 0.00 60 1011.2
20260906200149 33 279 6.4 11.3 0.00 0.00 0.00 60 1011.2
20260906195646 32 224 6.4 9.7 0.00 0.00 0.00 61 1011.2
20260906195147 32 238 6.4 16.1 0.00 0.00 0.00 61 1011.2
20260906194646 32 290 9.7 12.9 0.00 0.00 0.00 60 1011.2
20260906194147 33 268 6.4 12.9 0.00 0.00 0.00 58 1011.5
20260906193646 32 309 11.3 11.3 0.00 0.00 0.00 60 1011.5
20260906193146 32 300 8.0 12.9 0.00 0.00 0.00 61 1011.5
20260906192646 32 354 1.6 11.3 0.00 0.00 0.00 62 1011.5
20260906192146 32 296 11.3 12.9 0.00 0.00 0.00 60 1011.9
20260906191646 32 344 4.8 9.7 0.00 0.00 0.00 60 1011.9
20260906191147 32 330 6.4 9.7 0.00 0.00 0.00 63 1011.5
20260906190646 32 299 12.9 16.1 0.00 0.00 0.00 61 1011.9
20260906190149 32 360 0.0 8.0 0.00 0.00 0.00 61 1011.5
20260906185646 32 344 4.8 14.5 0.00 0.00 0.00 63 1011.9
20260906185146 32 272 4.8 11.3 0.00 0.00 0.00 64 1011.9
20260906184214 32 348 8.0 9.7 0.00 0.00 0.00 63 1012.2
20260906183647 31 10 6.4 9.7 0.00 0.00 0.00 65 1012.2
20260906183147 31 333 8.0 14.5 0.00 0.00 0.00 65 1012.2
20260906182646 31 332 11.3 16.1 0.00 0.00 0.00 65 1012.2
20260906182146 31 288 6.4 11.3 0.00 0.00 0.00 65 1012.2
20260906181646 31 345 11.3 16.1 0.00 0.00 0.00 65 1012.5
20260906181146 32 188 1.6 9.7 0.00 0.00 0.00 63 1012.2
20260906180646 31 360 3.2 6.4 0.00 0.00 0.00 67 1012.5
20260906180147 31 336 4.8 9.7 0.00 0.00 0.00 67 1012.9
20260906175646 31 283 12.9 14.5 0.00 0.00 0.00 65 1012.5
20260906175146 31 266 8.0 19.3 0.00 0.00 0.00 65 1012.2
20260906174646 31 323 4.8 8.0 0.00 0.00 0.00 67 1012.9
20260906174146 31 314 8.0 14.5 0.00 0.00 0.00 69 1012.9
20260906173646 31 273 4.8 8.0 0.00 0.00 0.00 70 1012.5
20260906173146 31 221 8.0 11.3 0.00 0.00 0.00 69 1012.9
20260906172647 31 302 11.3 16.1 0.00 0.00 0.00 69 1012.9
20260906172146 31 240 3.2 6.4 0.00 0.00 0.00 70 1012.9
20260906171646 31 320 4.8 4.8 0.00 0.00 0.00 70 1012.9
20260906171148 31 267 9.7 14.5 0.00 0.00 0.00 71 1013.2
20260906170647 30 300 4.8 14.5 0.00 0.00 0.00 71 1012.9
20260906170146 30 290 8.0 12.9 0.00 0.00 0.00 72 1013.2
20260906165646 30 296 11.3 12.9 0.00 0.00 0.00 72 1012.9
20260906165147 30 331 6.4 11.3 0.00 0.00 0.00 73 1013.5
20260906164646 30 211 3.2 9.7 0.00 0.00 0.00 74 1013.5
20260906164146 30 313 3.2 11.3 0.00 0.00 0.00 74 1013.5
20260906163646 30 297 9.7 16.1 0.00 0.00 0.00 75 1013.5
20260906163146 30 210 8.0 11.3 0.00 0.00 0.00 75 1013.5
20260906162649 30 353 4.8 14.5 0.00 0.00 0.00 77 1013.5
20260906162146 30 272 8.0 12.9 0.00 0.00 0.00 77 1013.5
20260906161646 30 332 6.4 14.5 0.00 0.00 0.00 77 1013.5
20260906161147 29 246 9.7 12.9 0.00 0.00 0.00 78 1013.5
20260906160646 29 278 8.0 12.9 0.00 0.00 0.00 78 1013.5
20260906160146 29 239 4.8 11.3 0.00 0.00 0.00 78 1013.5
20260906155647 29 285 4.8 11.3 0.00 0.00 0.00 80 1013.5
20260906155146 29 239 4.8 11.3 0.00 0.00 0.00 79 1013.5
20260906154646 29 247 4.8 14.5 0.00 0.00 0.00 79 1013.2
20260906154146 29 276 3.2 6.4 0.00 0.00 0.00 79 1013.5
20260906153646 30 299 8.0 11.3 0.00 0.00 0.00 77 1013.5
20260906153146 29 12 6.4 9.7 0.00 0.00 0.00 80 1013.5
20260906152646 29 307 4.8 11.3 0.00 0.00 0.00 81 1013.5
20260906152146 29 290 9.7 9.7 0.00 0.00 0.00 81 1013.2
20260906151646 29 350 6.4 9.7 0.00 0.00 0.00 81 1013.5
20260906151146 28 307 8.0 12.9 0.00 0.00 0.00 81 1013.2
20260906150646 29 11 8.0 12.9 0.00 0.00 0.00 82 1013.2
20260906150146 29 327 3.2 8.0 0.00 0.00 0.00 82 1013.2
20260906145646 28 339 4.8 11.3 0.00 0.00 0.00 83 1012.9
20260906145146 28 327 11.3 12.9 0.00 0.00 0.00 83 1013.2
20260906144646 28 360 4.8 12.9 0.00 0.00 0.00 85 1012.9
20260906144146 28 15 8.0 11.3 0.00 0.00 0.00 84 1013.2
20260906143647 28 81 3.2 9.7 0.00 0.00 0.00 84 1012.9
20260906143146 28 332 4.8 9.7 0.00 0.00 0.00 86 1013.2
20260906142646 28 274 4.8 9.7 0.00 0.00 0.00 87 1013.2
20260906142146 28 287 4.8 9.7 0.00 0.00 0.00 88 1013.2
20260906141647 27 302 4.8 6.4 0.00 0.00 0.00 89 1013.2
20260906141147 27 269 0.0 8.0 0.00 0.00 0.00 88 1013.2
20260906140646 27 271 6.4 9.7 0.00 0.00 0.00 90 1013.5
20260906140147 27 280 8.0 11.3 0.00 0.00 0.00 89 1013.5
20260906135647 27 327 4.8 9.7 0.00 0.00 0.00 90 1013.5
20260906135146 27 291 6.4 11.3 0.00 0.00 0.00 91 1013.9
20260906134648 27 280 8.0 14.5 0.00 0.00 0.00 91 1013.5
20260906134146 27 320 4.8 11.3 0.00 0.00 0.00 91 1013.5
20260906133647 27 330 3.2 11.3 0.00 0.00 0.00 91 1013.5
20260906133146 27 309 9.7 12.9 0.00 0.00 0.00 91 1013.9
20260906132646 26 298 3.2 8.0 0.00 0.00 0.00 91 1013.5
20260906132146 26 287 3.2 9.7 0.00 0.00 0.00 91 1013.5
20260906131646 26 314 4.8 11.3 0.00 0.00 0.00 91 1013.2
20260906131147 26 283 3.2 8.0 0.00 0.00 0.00 91 1013.5
20260906130646 26 276 1.6 4.8 0.00 0.00 0.00 92 1013.5
20260906130146 26 283 4.8 6.4 0.00 0.00 0.00 92 1013.5
20260906125646 26 289 3.2 4.8 0.00 0.00 0.00 93 1013.2
20260906125146 26 280 4.8 8.0 0.00 0.00 0.00 93 1013.2
20260906124646 26 296 0.0 6.4 0.00 0.00 0.00 93 1013.2
20260906124146 26 167 0.0 4.8 0.00 0.00 0.00 94 1012.9
20260906123646 25 110 0.0 4.8 0.00 0.00 0.00 95 1013.2
20260906123147 25 136 1.6 4.8 0.00 0.00 0.00 96 1012.9
20260906122646 25 212 0.0 3.2 0.00 0.00 0.00 97 1012.9
20260906122146 25 231 1.6 4.8 0.00 0.00 0.00 97 1012.9
20260906121647 25 187 0.0 3.2 0.00 0.00 0.00 98 1012.9
20260906121147 25 328 0.0 3.2 0.00 0.00 0.00 98 1012.9
20260906120646 24 324 1.6 4.8 0.00 0.00 0.00 98 1012.9
20260906120146 24 162 3.2 3.2 0.00 0.00 0.00 98 1012.5
20260906115646 24 210 0.0 4.8 0.00 0.00 0.00 98 1012.5
20260906115147 24 184 0.0 4.8 0.00 0.00 0.00 98 1012.2
20260906114646 24 276 1.6 4.8 0.00 0.00 0.00 98 1012.5
20260906114146 25 303 3.2 4.8 0.05 0.00 0.00 98 1012.2
20260906113646 25 305 3.2 4.8 0.05 0.00 0.00 98 1012.2
20260906113146 25 298 4.8 6.4 0.00 0.00 0.00 98 1012.2
20260906112646 25 278 4.8 6.4 0.00 0.00 0.00 98 1012.2
20260906112146 25 355 3.2 6.4 0.00 0.00 0.00 98 1012.5
20260906111646 25 276 3.2 4.8 0.00 0.00 0.00 98 1012.5
20260906111146 25 298 3.2 4.8 0.00 0.00 0.00 98 1012.5
20260906110646 25 302 3.2 6.4 0.00 0.00 0.00 98 1012.2
20260906110146 25 292 1.6 8.0 0.00 0.00 0.00 97 1011.9
20260906105646 25 297 4.8 6.4 0.00 0.00 0.00 98 1011.9
20260906105146 25 296 4.8 6.4 0.00 0.00 0.00 98 1011.9
20260906104646 25 138 0.0 6.4 0.00 0.00 0.00 98 1012.2
20260906104147 25 237 1.6 4.8 0.00 0.00 0.00 98 1011.9
20260906103646 25 302 1.6 4.8 0.00 0.00 0.00 98 1011.9
20260906103146 25 220 3.2 6.4 0.00 0.00 0.00 98 1011.9
20260906102648 25 253 1.6 9.7 0.00 0.00 0.00 99 1011.9
20260906102146 25 223 3.2 4.8 0.00 0.00 0.00 99 1011.9
20260906101648 25 161 0.0 6.4 0.00 0.00 0.00 99 1011.5
20260906101146 25 96 0.0 6.4 0.00 0.00 0.00 99 1011.9
20260906100646 25 269 1.6 6.4 0.00 0.00 0.00 99 1011.9
20260906100146 25 340 1.6 4.8 0.00 0.00 0.00 99 1011.9
20260906095646 25 129 3.2 8.0 0.00 0.00 0.00 99 1011.5
20260906095147 25 146 0.0 4.8 0.00 0.00 0.00 99 1011.5
20260906094647 25 169 1.6 4.8 0.00 0.00 0.00 99 1011.5
20260906094147 25 163 6.4 8.0 0.00 0.00 0.00 99 1011.5
20260906093646 25 254 1.6 4.8 0.00 0.00 0.00 99 1011.5
20260906093146 25 267 3.2 6.4 0.00 0.00 0.00 99 1011.5
20260906092646 25 250 3.2 4.8 0.00 0.00 0.00 99 1011.9
20260906092146 25 262 3.2 8.0 0.00 0.00 0.00 99 1011.9
20260906091646 25 19 0.0 6.4 0.00 0.00 0.00 99 1011.9
20260906091147 25 157 4.8 4.8 0.00 0.00 0.00 99 1011.9
20260906090646 25 213 0.0 4.8 0.00 0.00 0.00 99 1011.5
20260906090146 25 194 4.8 6.4 0.00 0.00 0.00 99 1011.9
20260906085646 25 211 3.2 3.2 0.00 0.00 0.00 99 1011.9
20260906085147 25 178 0.0 3.2 0.00 0.00 0.00 99 1011.9
20260906084646 25 218 1.6 3.2 0.00 0.00 0.00 99 1011.9
20260906084146 25 342 3.2 3.2 0.00 0.00 0.00 99 1011.9
20260906083646 25 315 0.0 1.6 0.00 0.00 0.00 98 1011.9
20260906083146 25 333 0.0 3.2 0.00 0.00 0.00 98 1011.5
20260906082646 25 336 0.0 0.0 0.00 0.00 0.00 98 1011.9
20260906082147 25 343 0.0 1.6 0.00 0.00 0.00 98 1011.5
20260906081646 25 244 0.0 1.6 0.00 0.00 0.00 98 1011.5
20260906081146 25 315 0.0 3.2 0.00 0.00 0.00 98 1011.5
20260906080646 25 4 0.0 3.2 0.00 0.00 0.00 98 1011.5
20260906080146 25 258 0.0 1.6 0.00 0.00 0.00 98 1011.5
20260906075646 25 333 0.0 3.2 0.00 0.00 0.00 98 1011.5
20260906075147 25 255 1.6 3.2 0.00 0.00 0.00 98 1011.5
20260906074646 25 315 0.0 0.0 0.00 0.00 0.00 98 1011.5
20260906074146 25 343 0.0 3.2 0.00 0.00 0.00 98 1011.5
20260906073646 25 214 1.6 4.8 0.00 0.00 0.00 98 1011.5
20260906073146 25 211 3.2 4.8 0.00 0.00 0.00 98 1011.5
20260906072647 25 237 4.8 4.8 0.00 0.00 0.00 98 1011.5
20260906072146 25 235 1.6 4.8 0.00 0.00 0.00 98 1011.5
20260906071647 25 207 3.2 4.8 0.00 0.00 0.00 98 1011.5
20260906071146 25 215 1.6 4.8 0.00 0.00 0.00 98 1011.5
20260906070646 25 233 1.6 4.8 0.00 0.00 0.00 98 1011.5
20260906070146 25 196 0.0 3.2 0.00 0.00 0.00 98 1011.9
20260906065648 25 240 4.8 4.8 0.00 0.00 0.00 98 1011.9
20260906065146 25 224 0.0 4.8 0.00 0.00 0.00 98 1011.5
20260906064646 25 216 1.6 4.8 0.00 0.00 0.00 98 1011.9
20260906064146 25 207 3.2 4.8 0.00 0.00 0.00 98 1011.9
20260906063649 25 189 3.2 4.8 0.00 0.00 0.00 98 1011.5
20260906063146 25 187 1.6 3.2 0.00 0.00 0.00 98 1011.9
20260906062646 25 232 1.6 3.2 0.00 0.00 0.00 98 1011.9
20260906062146 25 210 0.0 3.2 0.00 0.00 0.00 98 1011.9
20260906061646 25 221 0.0 1.6 0.00 0.00 0.00 97 1011.5
20260906061147 25 180 0.0 1.6 0.00 0.00 0.00 98 1011.9
20260906060647 25 213 3.2 3.2 0.00 0.00 0.00 98 1011.9
20260906060147 25 235 1.6 4.8 0.00 0.00 0.00 98 1011.9
20260906055646 25 221 3.2 4.8 0.00 0.00 0.00 98 1011.5
20260906055146 25 213 6.4 8.0 0.00 0.00 0.00 98 1011.9
20260906054646 25 196 1.6 4.8 0.00 0.00 0.00 98 1011.9
20260906054146 25 283 3.2 4.8 0.00 0.00 0.00 98 1011.9
20260906053646 25 228 3.2 8.0 0.00 0.00 0.00 98 1011.9
20260906053146 25 231 3.2 6.4 0.00 0.00 0.00 97 1011.9
20260906052646 25 215 4.8 8.0 0.00 0.00 0.00 97 1011.9
20260906052146 25 201 4.8 8.0 0.00 0.00 0.00 97 1011.9
20260906051647 25 185 4.8 8.0 0.00 0.00 0.00 97 1011.5
20260906051146 25 225 6.4 8.0 0.00 0.00 0.00 97 1011.5
20260906050646 25 213 6.4 6.4 0.00 0.00 0.00 97 1011.5
20260906050147 25 194 3.2 6.4 0.00 0.00 0.00 97 1011.9
20260906045646 25 209 3.2 4.8 0.00 0.00 2.95 97 1011.5
20260906045146 25 252 3.2 3.2 0.00 0.00 2.95 97 1011.5
20260906044646 25 205 1.6 4.8 0.00 0.00 2.95 97 1011.5
20260906044146 25 180 1.6 4.8 0.00 0.00 2.95 97 1011.5
20260906043646 25 197 3.2 6.4 0.00 0.00 2.95 97 1011.5
20260906043146 25 192 4.8 6.4 0.00 0.00 2.95 97 1011.5
20260906042646 25 183 4.8 6.4 0.00 0.00 2.95 96 1011.5
20260906042146 25 171 4.8 6.4 0.00 0.00 2.95 96 1011.9
20260906041646 25 184 4.8 4.8 0.00 0.00 2.95 96 1011.9
20260906041146 25 175 3.2 4.8 0.00 0.00 2.95 96 1011.5
20260906040646 25 168 4.8 6.4 0.00 0.00 2.95 95 1011.5
20260906040146 25 165 1.6 4.8 0.00 0.00 2.95 96 1011.5
20260906035646 25 141 3.2 4.8 0.00 0.00 2.95 96 1011.5
20260906035147 25 129 0.0 0.0 0.00 0.00 2.95 95 1011.5
20260906034646 25 160 1.6 4.8 0.00 0.00 2.95 95 1011.5
20260906034146 25 152 3.2 3.2 0.00 0.00 2.95 96 1011.5
20260906033646 25 132 1.6 4.8 0.00 0.00 2.95 96 1011.5
20260906033146 25 190 3.2 3.2 0.00 0.00 2.95 95 1011.5
20260906032646 25 239 3.2 6.4 0.00 0.00 2.95 95 1011.5
20260906032147 25 194 4.8 4.8 0.00 0.00 2.95 95 1011.5
20260906031646 25 183 4.8 4.8 0.00 0.00 2.95 95 1011.9
20260906031146 25 154 1.6 3.2 0.00 0.00 2.95 95 1011.9
20260906030646 25 224 0.0 4.8 0.00 0.00 2.95 95 1011.5
20260906030146 25 214 3.2 4.8 0.00 0.00 2.95 95 1011.5
20260906025646 25 192 3.2 4.8 0.00 0.00 2.95 95 1011.5
20260906025146 25 190 1.6 3.2 0.05 0.00 2.95 95 1011.5
20260906024646 25 163 3.2 4.8 0.05 0.00 2.95 95 1011.9
20260906024146 25 103 0.0 3.2 0.00 0.00 2.92 95 1011.5
20260906023646 25 65 0.0 1.6 0.00 0.00 2.92 95 1011.5
20260906023146 25 129 1.6 3.2 0.00 0.00 2.92 95 1011.5
20260906022646 25 193 3.2 3.2 0.00 0.00 2.92 95 1011.5
20260906022146 25 267 3.2 3.2 0.00 0.00 2.92 95 1011.5
20260906021646 25 282 1.6 4.8 0.00 0.00 2.92 94 1011.5
20260906021149 26 315 0.0 4.8 0.00 0.00 2.92 94 1011.5
20260906020647 26 288 3.2 3.2 0.00 0.00 2.92 94 1011.5
20260906020146 26 236 3.2 4.8 0.00 0.00 2.92 93 1011.9
20260906015647 26 313 1.6 4.8 0.00 0.00 2.92 94 1011.5
20260906015146 26 345 1.6 4.8 0.00 0.00 2.92 93 1011.2
20260906014646 26 34 0.0 3.2 0.00 0.00 2.92 92 1011.2
20260906014147 26 44 0.0 3.2 0.00 0.00 2.92 92 1011.5
20260906013646 26 82 3.2 4.8 0.00 0.00 2.92 93 1011.2
20260906013146 25 59 0.0 3.2 0.00 0.00 2.92 93 1011.2
20260906012646 25 164 0.0 0.0 0.00 0.00 2.92 92 1011.2
20260906012147 25 129 0.0 0.0 0.00 0.00 2.92 93 1011.2
20260906011647 25 148 3.2 4.8 0.00 0.00 2.92 93 1011.2
20260906011146 25 210 0.0 0.0 0.00 0.00 2.92 92 1011.2
20260906010647 25 135 0.0 0.0 0.00 0.00 2.92 92 1011.2
20260906010147 25 135 0.0 0.0 0.00 0.00 2.92 91 1011.2
20260906005646 25 143 3.2 3.2 0.00 0.00 2.92 91 1011.2
20260906005147 25 209 0.0 3.2 0.00 0.00 2.92 91 1011.5
20260906004646 25 284 1.6 4.8 0.00 0.00 2.92 91 1011.2
20260906004146 25 234 3.2 4.8 0.00 0.00 2.92 91 1011.2
20260906003646 26 232 3.2 3.2 0.00 0.00 2.92 91 1011.2
20260906003146 25 231 4.8 6.4 0.00 0.00 2.92 91 1011.5
20260906002646 25 230 3.2 8.0 0.00 0.00 2.92 92 1011.2
20260906002146 26 234 8.0 8.0 0.00 0.00 2.92 93 1011.2
20260906001646 26 228 6.4 6.4 0.00 0.00 2.92 93 1011.5
20260906001146 26 207 3.2 4.8 0.00 0.00 2.92 94 1011.5
20260906000646 26 228 3.2 6.4 0.00 0.00 2.92 94 1011.5
20260906000147 26 189 0.0 3.2 0.00 0.00 2.92 95 1011.5
20260905235646 26 173 3.2 3.2 0.00 0.00 2.92 95 1011.5
20260905235147 26 228 0.0 4.8 0.00 0.00 2.92 95 1011.5
20260905234647 26 275 3.2 6.4 0.00 0.00 2.92 94 1011.5
20260905234146 26 252 1.6 4.8 0.00 0.00 2.92 94 1011.2
20260905233646 25 226 3.2 4.8 0.00 0.00 2.92 94 1011.2
20260905233146 25 174 0.0 4.8 0.00 0.00 2.92 93 1011.5
20260905232646 25 192 3.2 4.8 0.00 0.00 2.92 93 1011.9
20260905232146 25 223 4.8 6.4 0.05 0.00 2.92 92 1011.9
20260905231646 25 243 4.8 6.4 0.13 0.00 2.92 91 1011.5
20260905231147 25 223 3.2 4.8 0.13 0.00 2.92 92 1011.5
20260905230646 25 47 0.0 6.4 0.13 0.00 2.92 92 1011.9
20260905230146 25 27 1.6 3.2 0.13 0.00 2.90 92 1011.5
20260905225647 25 71 3.2 6.4 0.43 0.00 2.90 93 1011.9
20260905225146 25 68 0.0 6.4 0.89 0.00 2.87 93 1012.2
20260905224646 26 13 8.0 9.7 1.02 0.00 2.82 94 1012.2
20260905224147 26 16 4.8 9.7 0.61 0.00 2.72 93 1012.2